STARLINK-30579, 58061

Orbit data source: Space-Track

STARLINK-30579, 58061 is a payload satellite owned by SpaceX/Seattle (US) in LEO that was launched on Fri, 13 Oct 2023 UTC via an FALCON 9 launch vehicle from the Air Force Eastern Test Range (AFETR). Payload-class satellites include a variety of spacecraft equipped with specific instruments for various scientific and technological missions. These include communications satellites like Starlink; space stations such as the ISS; scientific satellites like the Hubble; Earth observation satellites from companies like Planet Labs, Umbra, and HawkEye 360; GPS; miniature CubeSats for education and research; and military/defense satellites.

Loading next visibility...
Identifier
58061, 2023-158L
Orbit
LEO
Country
Flag of USUS
Related business
Manufacturer
SpaceX/Seattle
Mission
Operational Commercial Communications
Bus & Motor
STARLINK V2M, Unknown motor
Mass
730 kg wet, ~700 kg dry
Launch date (UTC)
2023-10-13 (3 years ago)
Launch vehicle
FALCON 9
Launch site
Air Force Eastern Test Range (AFETR)
Object type
Payload
Rocket body
Debris
Shape & HBR
Box + 2 Pan, 17.7 m
Radar Cross Section
33.884 m², Large (>1 m²)

Expand to show TLE details & history
Last TLE update: 2 days ago

TLE from 2 days ago
0 STARLINK-30579
1 58061U 23158L   26171.39809120  .00000686  00000-0  34469-4 0  9998
2 58061  43.0016 141.2035 0001367 265.3901  94.6795 15.27576576149572
Epoch: 2026-06-20T09:33Z
TLE epoch observation values (Epoch: 2026-06-20T09:33:15.079Z)
Latitude
0.00001°
Longitude
89.27739°
Altitude
482.912 km
Speed
7.626 km/s
True Right ascension
09h 24m 48s
True Declination
0° 00' 00"
Sunlit
Object was in daylight at epoch
Visualization orbit readout
Latitude
Unknown
Longitude
Unknown
Altitude
Unknown
Speed
Unknown
Apparent Right ascension
Unknown
Apparent Declination
Unknown
Sunlit
N/A
Visualization observer readout
Local Sidereal Time
21:31:38
Azimuth
Unknown
Elevation
Unknown
Doppler factor
Unknown
Orbital elements
Apogee altitude
485.942 km
Perigee altitude
484.066 km
Semi-major axis
6,863.141 km
Eccentricity
0.00014
Inclination
43.0016°
RAAN
141.2035°
Arg. of periapsis
265.3901°
True anomaly
94.69511°
Mean anomaly
94.6795°
Eccentric anomaly
94.68731°
Mean motion
3.81732 °/min
Orbital period
94.31 mins
BSTAR
0.000034469
Loading maneuver chart data...
Computing Atmospheric mass density...
Loading historical data...
Loading historical data...
Loading historical data...
Loading historical data...
Loading historical data...
Loading historical data...
Loading historical data...

Documentation

Showing up to 5 results
|